Ty Dolese — WDH7645 — position and weather

sailwx.info

Track history (hours):
 
Tides and Currents Weather Stations Pressure Air Temp Water Temp Dewpoint Dewpoint Depression Visibility Wind Speed Wind Dir Waves Ship Positions

Ty Dolese

Owner: Florida Marine, LLC, Mandeville, LA. More information available from US FCC via Universal Licensing System and Coast Guard Vessel Documentation Center.

Last reported at 2018-Jun-17 22:10 UTC. Time now 2018-Jun-18 06:01 UTC.
Position N 31°59' W 091°06'.

Length 27 m; draft 2.9 m.

Type: Other ship. MMSI: 367650190.

Date/timePositionNaut miles runAvg speedWind from/ knotsBaromVisibWave heightAir tempDewpointWater temp
2018-Jun-17 22:10N 31°59' W 091°06'2 9.1
2018-Jun-17 22:00N 32°01' W 091°05'5 8.3
2018-Jun-17 21:23N 32°06' W 091°05'2 6.4
2018-Jun-17 21:00N 32°08' W 091°05'4 8.0
2018-Jun-17 20:29N 32°09' W 091°00'5 9.6
2018-Jun-17 19:59N 32°14' W 090°59'5 9.6
2018-Jun-17 19:30N 32°17' W 090°56'3 6.3
2018-Jun-17 19:00N 32°20' W 090°55'3 6.5
2018-Jun-17 18:30N 32°21' W 090°59'4 7.5
2018-Jun-17 18:00N 32°25' W 090°60'5 9.3
2018-Jun-17 17:30N 32°27' W 091°05'5 8.3
2018-Jun-17 16:57N 32°31' W 091°06'4 8.8
2018-Jun-17 16:30N 32°35' W 091°07'  
Track history (hours):
 
Tides and Currents Weather Stations Pressure Air Temp Water Temp Dewpoint Dewpoint Depression Visibility Wind Speed Wind Dir Waves Ship Positions

Ty Dolese

Owner: Florida Marine, LLC, Mandeville, LA. More information available from US FCC via Universal Licensing System and Coast Guard Vessel Documentation Center.

Last reported at 2018-Jun-17 22:10 UTC. Time now 2018-Jun-18 06:01 UTC.
Position N 31°59' W 091°06'.

Length 27 m; draft 2.9 m.

Type: Other ship. MMSI: 367650190.

Date/timePositionNaut miles runAvg speedWind from/ knotsBaromVisibWave heightAir tempDewpointWater temp
2018-Jun-17 22:10N 31°59' W 091°06'2 9.1
2018-Jun-17 22:00N 32°01' W 091°05'5 8.3
2018-Jun-17 21:23N 32°06' W 091°05'2 6.4
2018-Jun-17 21:00N 32°08' W 091°05'4 8.0
2018-Jun-17 20:29N 32°09' W 091°00'5 9.6
2018-Jun-17 19:59N 32°14' W 090°59'5 9.6
2018-Jun-17 19:30N 32°17' W 090°56'3 6.3
2018-Jun-17 19:00N 32°20' W 090°55'3 6.5
2018-Jun-17 18:30N 32°21' W 090°59'4 7.5
2018-Jun-17 18:00N 32°25' W 090°60'5 9.3
2018-Jun-17 17:30N 32°27' W 091°05'5 8.3
2018-Jun-17 16:57N 32°31' W 091°06'4 8.8
2018-Jun-17 16:30N 32°35' W 091°07'  

Dump ship's entire track history